Medicine Lodge, KS

2:35 AM CST on November 24, 2017 (GMT -0600)
Medicine Lodge

Weather History for KP28 - June, 2014

Change the Weather History Date:

Wednesday, June 18, 2014

  Actual Average Record
Temperature  
Mean Temperature 85 °F 78 °F  
Max Temperature 95 °F 90 °F 108 °F (1905)
Min Temperature 74 °F 65 °F 49 °F (1912)
Degree Days  
Heating Degree Days 0 0  
Month to date heating degree days 0 0  
Since 1 June heating degree days 0 0  
Since 1 July heating degree days 5023 4455  
Cooling Degree Days 20 13  
Month to date cooling degree days 195 183  
Year to date cooling degree days 464 339  
Since 1 June cooling degree days 195 183  
Growing Degree Days 34 (Base 50)    
Moisture  
Dew Point 68 °F    
Average Humidity 62    
Maximum Humidity 84    
Minimum Humidity 39    
Precipitation  
Precipitation 0.00 in 0.14 in 1.84 in (1921)
Month to date precipitation 4.92 2.70  
Year to date precipitation 7.81 12.44  
Snow  
Snow 0.00 in 0.00 in - ()
Month to date snowfall 0.0 0.0  
Since 1 June snowfall 0.0 0.0  
Since 1 July snowfall 28.5 8.5  
Snow Depth 0.00 in    
Sea Level Pressure  
Sea Level Pressure 29.75 in    
Wind  
Wind Speed 16 mph (South)    
Max Wind Speed 25 mph    
Max Gust Speed 35 mph    
T = Trace of Precipitation, MM = Missing Value Source: NWS Daily Summary

Daily Weather History Graph

Daily Weather History Graph

Search for Another Location

Airport or City:

Trip Planner

Search our weather history database for the weather conditions in past years. The results will help you decide how hot, cold, wet, or windy it might be!

Date:

Astronomy

Jun. 18, 2014 Rise Set
Actual Time 6:13 AM CDT 8:57 PM CDT
Civil Twilight 5:42 AM CDT 9:28 PM CDT
Nautical Twilight 5:03 AM CDT 10:07 PM CDT
Astronomical Twilight 4:20 AM CDT 10:51 PM CDT
Moon 12:33 AM CDT (6/18) 12:31 PM CDT (6/18)
Length of Visible Light 15h 45m
Length of Day
14h 43m
Waning Gibbous, 62% of the Moon is Illuminated
Jun 18
Waning Gibbous
Jun 19
Last Quarter
Jun 27
New
Jul 5
First Quarter
Jul 12
Full

Hourly Weather History & Observations

Time (CDT) Temp. Heat Index Dew Point Humidity Pressure Visibility Wind Dir Wind Speed Gust Speed Precip Events Conditions
12:56 AM 80.1 °F 82.9 °F 69.1 °F 69% 29.73 in - South 15.0 mph 21.9 mph N/A   Unknown
1:56 AM 79.0 °F - 68.0 °F 69% 29.73 in - South 13.8 mph 19.6 mph N/A   Unknown
2:56 AM 79.0 °F - 66.9 °F 66% 29.74 in - SSE 6.9 mph 16.1 mph N/A   Unknown
3:56 AM 78.1 °F - 66.9 °F 68% 29.75 in - SE 3.5 mph - N/A   Unknown
4:56 AM 78.1 °F - 66.9 °F 68% 29.73 in - SSE 9.2 mph - N/A   Unknown
5:56 AM 73.9 °F - 68.0 °F 82% 29.75 in - SSE 10.4 mph - N/A   Unknown
6:56 AM 73.9 °F - 66.9 °F 79% 29.76 in - SSE 10.4 mph - N/A   Unknown
7:56 AM 75.9 °F - 68.0 °F 76% 29.76 in - South 12.7 mph 23.0 mph N/A   Unknown
8:56 AM 79.0 °F - 68.0 °F 69% 29.77 in - South 18.4 mph 21.9 mph N/A   Unknown
9:56 AM 82.9 °F 85.8 °F 68.0 °F 60% 29.76 in - South 23.0 mph 29.9 mph N/A   Unknown
10:56 AM 86.0 °F 89.4 °F 68.0 °F 55% 29.75 in - South 20.7 mph 29.9 mph N/A   Unknown
11:56 AM 88.0 °F 91.4 °F 68.0 °F 51% 29.75 in - South 18.4 mph 35.7 mph N/A   Unknown
12:56 PM 88.0 °F 90.7 °F 66.9 °F 49% 29.76 in - South 19.6 mph 31.1 mph N/A   Unknown
1:56 PM 88.0 °F 91.4 °F 68.0 °F 51% 29.76 in - South 17.3 mph 24.2 mph N/A   Unknown
2:56 PM 90.0 °F 94.5 °F 69.1 °F 50% 29.74 in - South 16.1 mph - N/A   Unknown
3:56 PM 95.0 °F 99.0 °F 66.9 °F 40% 29.72 in - SSW 16.1 mph 27.6 mph N/A   Unknown
4:56 PM 93.0 °F 96.4 °F 66.9 °F 42% 29.72 in - South 17.3 mph 24.2 mph N/A   Unknown
5:56 PM 91.9 °F 94.5 °F 66.0 °F 42% 29.72 in - South 23.0 mph 33.4 mph N/A   Unknown
6:56 PM 91.9 °F 95.9 °F 68.0 °F 45% 29.72 in - South 25.3 mph 34.5 mph N/A   Unknown
7:56 PM 89.1 °F 92.9 °F 68.0 °F 50% 29.73 in - South 19.6 mph 33.4 mph N/A   Unknown
8:56 PM 86.0 °F 90.1 °F 69.1 °F 57% 29.75 in - South 16.1 mph 24.2 mph N/A   Unknown
9:56 PM 84.0 °F 87.8 °F 69.1 °F 61% 29.76 in - South 13.8 mph 28.8 mph N/A   Unknown
10:56 PM 81.0 °F 84.4 °F 70.0 °F 69% 29.78 in - South 17.3 mph 27.6 mph N/A   Unknown
11:56 PM 79.0 °F - 69.1 °F 72% 29.78 in - South 17.3 mph 26.5 mph N/A   Unknown